�������l�o���
Date,Time,MP-1(��Sv/h),MP-2(��Sv/h),MP-3(��Sv/h),MP-4(��Sv/h),MP-5(��Sv/h),MP-6(��Sv/h),MP-7(��Sv/h),MP-8(��Sv/h),����,����(m/s),���J
2019/04/19,00:00,0.771,1.131,0.778,1.430,1.052,0.442,0.776,0.735,��,7.4,��
2019/04/19,00:10,0.770,1.130,0.776,1.432,1.048,0.442,0.778,0.735,��,7.6,��
2019/04/19,00:20,0.771,1.130,0.774,1.431,1.051,0.442,0.777,0.734,��,7.1,��
2019/04/19,00:30,0.773,1.129,0.778,1.432,1.050,0.442,0.779,0.735,��,7.9,��
2019/04/19,00:40,0.771,1.128,0.776,1.432,1.049,0.442,0.778,0.736,��,8.2,��
2019/04/19,00:50,0.770,1.129,0.776,1.432,1.050,0.443,0.778,0.736,��,6.9,��
2019/04/19,01:00,0.772,1.127,0.777,1.431,1.051,0.442,0.779,0.736,��,8.5,��
2019/04/19,01:10,0.771,1.129,0.776,1.434,1.051,0.443,0.777,0.733,��,7.8,��
2019/04/19,01:20,0.770,1.131,0.777,1.434,1.050,0.443,0.779,0.733,��,8.5,��
2019/04/19,01:30,0.772,1.130,0.777,1.433,1.050,0.443,0.780,0.734,��,9.8,��
2019/04/19,01:40,0.771,1.131,0.775,1.435,1.050,0.443,0.778,0.736,��,10.6,��
2019/04/19,01:50,0.773,1.128,0.776,1.435,1.049,0.443,0.778,0.735,��쐼,9.9,��
2019/04/19,02:00,0.773,1.129,0.776,1.433,1.049,0.444,0.778,0.735,��,10.6,��
2019/04/19,02:10,0.773,1.131,0.777,1.434,1.050,0.442,0.778,0.734,��,8.9,��
2019/04/19,02:20,0.773,1.129,0.777,1.434,1.049,0.444,0.777,0.736,��쐼,6.9,��
2019/04/19,02:30,0.772,1.130,0.777,1.432,1.052,0.443,0.779,0.734,��,9.3,��
2019/04/19,02:40,0.773,1.130,0.778,1.433,1.051,0.443,0.778,0.734,��,8.7,��
2019/04/19,02:50,0.774,1.129,0.777,1.434,1.048,0.442,0.777,0.736,��,7.0,��
2019/04/19,03:00,0.773,1.131,0.778,1.434,1.048,0.444,0.777,0.735,��쐼,6.6,��
2019/04/19,03:10,0.771,1.130,0.777,1.432,1.049,0.444,0.776,0.733,��,6.2,��
2019/04/19,03:20,0.772,1.129,0.776,1.434,1.049,0.444,0.777,0.734,��,6.6,��
2019/04/19,03:30,0.772,1.131,0.777,1.433,1.052,0.443,0.776,0.735,��,6.3,��
2019/04/19,03:40,0.773,1.128,0.777,1.433,1.047,0.444,0.777,0.736,��,6.4,��
2019/04/19,03:50,0.771,1.129,0.777,1.432,1.048,0.442,0.777,0.734,��,6.3,��
2019/04/19,04:00,0.772,1.131,0.779,1.434,1.048,0.443,0.777,0.734,��,4.4,��
2019/04/19,04:10,0.772,1.129,0.775,1.431,1.050,0.441,0.778,0.736,�쐼,3.7,�L
2019/04/19,04:20,0.773,1.129,0.780,1.434,1.049,0.442,0.778,0.736,��쐼,4.1,��
2019/04/19,04:30,0.772,1.129,0.777,1.432,1.051,0.444,0.778,0.734,�쐼,3.4,��
2019/04/19,04:40,0.770,1.131,0.778,1.434,1.050,0.444,0.777,0.735,�쐼,4.5,��
2019/04/19,04:50,0.772,1.128,0.776,1.434,1.050,0.442,0.777,0.735,���쐼,4.4,��
2019/04/19,05:00,0.772,1.129,0.776,1.437,1.050,0.444,0.777,0.736,���쐼,3.9,��
2019/04/19,05:10,0.770,1.129,0.776,1.432,1.052,0.442,0.777,0.736,��,3.5,��
2019/04/19,05:20,0.769,1.129,0.778,1.433,1.050,0.444,0.776,0.735,�k��,4.3,��
2019/04/19,05:30,0.773,1.128,0.776,1.434,1.048,0.443,0.778,0.735,�k��,3.3,��
2019/04/19,05:40,0.772,1.130,0.776,1.432,1.049,0.443,0.777,0.735,�k�k��,2.3,��
2019/04/19,05:50,0.773,1.129,0.775,1.431,1.049,0.443,0.776,0.734,�k�k��,1.2,��
2019/04/19,06:00,0.773,1.129,0.777,1.432,1.051,0.442,0.775,0.737,�k��,1.9,�L
2019/04/19,06:10,0.771,1.129,0.776,1.434,1.051,0.442,0.777,0.733,�k�k��,1.7,��
2019/04/19,06:20,0.772,1.129,0.777,1.432,1.049,0.442,0.777,0.734,�k,1.7,�L
2019/04/19,06:30,0.772,1.124,0.776,1.434,1.050,0.442,0.775,0.735,�k,0.9,�L
2019/04/19,06:40,0.772,1.128,0.776,1.436,1.051,0.443,0.775,0.735,�k,0.9,�L
2019/04/19,06:50,0.772,1.127,0.776,1.433,1.050,0.444,0.775,0.734,��,1.2,�L
2019/04/19,07:00,0.771,1.129,0.776,1.434,1.049,0.442,0.776,0.735,�쓌,2.0,�L
2019/04/19,07:10,0.772,1.126,0.776,1.432,1.048,0.442,0.776,0.735,��쓌,2.3,��
2019/04/19,07:20,0.771,1.122,0.776,1.432,1.049,0.441,0.778,0.737,��쓌,1.1,�L
2019/04/19,07:30,0.773,1.123,0.778,1.432,1.049,0.442,0.777,0.735,-,CALM,��
2019/04/19,07:40,0.771,1.122,0.778,1.433,1.050,0.443,0.777,0.735,��쓌,1.2,��
2019/04/19,07:50,0.772,1.125,0.775,1.434,1.048,0.441,0.776,0.733,��,2.3,�L
2019/04/19,08:00,0.772,1.125,0.779,1.433,1.049,0.442,0.778,0.734,��,3.2,�L
2019/04/19,08:10,0.775,1.127,0.775,1.432,1.050,0.441,0.776,0.735,��,2.5,��
2019/04/19,08:20,0.775,1.127,0.775,1.434,1.052,0.442,0.777,0.736,��쓌,2.6,��
2019/04/19,08:30,0.772,1.125,0.776,1.434,1.049,0.442,0.778,0.735,��쓌,3.5,��
2019/04/19,08:40,0.773,1.128,0.778,1.434,1.050,0.441,0.777,0.736,��쓌,3.7,��
2019/04/19,08:50,0.772,1.128,0.778,1.435,1.049,0.441,0.777,0.735,��쓌,3.6,��
2019/04/19,09:00,0.772,1.128,0.776,1.436,1.052,0.439,0.777,0.735,��쓌,4.1,��
2019/04/19,09:10,0.772,1.128,0.778,1.437,1.050,0.441,0.776,0.736,�쓌,4.3,��
2019/04/19,09:20,0.771,1.117,0.778,1.433,1.049,0.439,0.778,0.734,��쓌,3.6,��
2019/04/19,09:30,0.773,1.120,0.779,1.433,1.052,0.439,0.778,0.734,�쓌,3.3,��
2019/04/19,09:40,0.771,1.124,0.777,1.437,1.051,0.439,0.778,0.734,��쓌,3.7,��
2019/04/19,09:50,0.771,1.124,0.777,1.437,1.051,0.439,0.776,0.733,�쓌,3.8,��
2019/04/19,10:00,0.770,1.124,0.777,1.436,1.051,0.441,0.776,0.731,�쓌,4.5,��
2019/04/19,10:10,0.772,1.125,0.776,1.436,1.041,0.439,0.777,0.732,�쓌,4.8,��
2019/04/19,10:20,0.772,1.122,0.773,1.437,1.037,0.442,0.777,0.732,�쓌,4.9,��
2019/04/19,10:30,0.771,1.122,0.775,1.434,1.039,0.441,0.776,0.733,��쓌,4.7,��
2019/04/19,10:40,0.772,1.125,0.774,1.437,1.036,0.441,0.777,0.733,���쐼,4.3,��
2019/04/19,10:50,0.772,1.126,0.776,1.437,1.039,0.441,0.777,0.732,���쐼,5.5,��
2019/04/19,11:00,0.771,1.126,0.777,1.438,1.050,0.437,0.779,0.733,��,7.8,��
2019/04/19,11:10,0.774,1.126,0.776,1.434,1.051,0.433,0.779,0.734,��,6.2,��
2019/04/19,11:20,0.772,1.127,0.776,1.433,1.053,0.437,0.779,0.733,��,7.2,��
2019/04/19,11:30,0.773,1.126,0.776,1.438,1.054,0.443,0.780,0.734,���k��,6.1,��
2019/04/19,11:40,0.774,1.125,0.777,1.433,1.051,0.443,0.780,0.733,���쐼,6.2,��
2019/04/19,11:50,0.774,1.127,0.778,1.435,1.055,0.443,0.781,0.734,��,6.4,��
2019/04/19,12:00,0.775,1.129,0.776,1.436,1.052,0.443,0.779,0.735,��,6.2,��
2019/04/19,12:10,0.774,1.128,0.778,1.436,1.054,0.443,0.780,0.731,���k��,6.6,��
2019/04/19,12:20,0.773,1.128,0.777,1.436,1.056,0.441,0.781,0.733,���쐼,7.8,��
2019/04/19,12:30,0.775,1.127,0.778,1.432,1.054,0.443,0.779,0.735,���k��,10.0,��
2019/04/19,12:40,0.776,1.128,0.779,1.438,1.054,0.443,0.779,0.732,��,6.8,��
2019/04/19,12:50,0.774,1.127,0.778,1.436,1.053,0.442,0.778,0.734,���k��,8.5,��
2019/04/19,13:00,0.775,1.127,0.778,1.437,1.054,0.444,0.778,0.734,���k��,11.1,��
2019/04/19,13:10,0.774,1.127,0.779,1.439,1.054,0.443,0.780,0.734,���k��,7.6,��
2019/04/19,13:20,0.774,1.127,0.778,1.437,1.054,0.441,0.780,0.736,��,10.3,��
2019/04/19,13:30,0.775,1.125,0.779,1.438,1.054,0.443,0.779,0.734,��,10.8,��
2019/04/19,13:40,0.776,1.123,0.780,1.438,1.057,0.444,0.777,0.734,��,9.1,��
2019/04/19,13:50,0.776,1.128,0.777,1.436,1.056,0.443,0.776,0.736,��,10.8,��
2019/04/19,14:00,0.776,1.127,0.779,1.439,1.053,0.442,0.777,0.734,��,10.5,��
2019/04/19,14:10,0.776,1.130,0.779,1.439,1.055,0.443,0.778,0.734,��,9.9,��
2019/04/19,14:20,0.774,1.131,0.780,1.439,1.054,0.441,0.777,0.736,��,7.6,��
2019/04/19,14:30,0.775,1.129,0.779,1.438,1.057,0.441,0.776,0.734,���k��,7.5,��
2019/04/19,14:40,0.774,1.125,0.778,1.440,1.054,0.441,0.776,0.733,���k��,7.0,��
2019/04/19,14:50,0.774,1.129,0.778,1.442,1.053,0.442,0.779,0.733,���k��,5.9,��
2019/04/19,15:00,0.775,1.128,0.776,1.441,1.054,0.442,0.780,0.734,���k��,7.6,��
2019/04/19,15:10,0.774,1.130,0.778,1.439,1.054,0.442,0.780,0.734,���k��,6.6,��
2019/04/19,15:20,0.775,1.128,0.779,1.440,1.056,0.444,0.778,0.735,���k��,5.7,��
2019/04/19,15:30,0.773,1.132,0.780,1.442,1.056,0.442,0.779,0.734,���k��,4.7,��
2019/04/19,15:40,0.774,1.129,0.778,1.443,1.054,0.442,0.780,0.734,���k��,6.1,��
2019/04/19,15:50,0.775,1.132,0.778,1.442,1.055,0.442,0.778,0.734,���k��,4.5,��
2019/04/19,16:00,0.775,1.130,0.779,1.441,1.054,0.442,0.779,0.734,�k��,7.5,��
2019/04/19,16:10,0.773,1.132,0.780,1.442,1.055,0.441,0.779,0.735,�k��,6.8,��
2019/04/19,16:20,0.775,1.134,0.778,1.445,1.055,0.443,0.781,0.735,�k��,7.0,��
2019/04/19,16:30,0.774,1.133,0.779,1.444,1.057,0.443,0.779,0.734,�k��,7.0,��
2019/04/19,16:40,0.774,1.131,0.779,1.443,1.054,0.443,0.778,0.736,�k��,9.1,��
2019/04/19,16:50,0.774,1.136,0.778,1.445,1.054,0.443,0.780,0.734,�k��,5.8,��
2019/04/19,17:00,0.775,1.133,0.779,1.442,1.057,0.443,0.777,0.735,���k��,7.6,��
2019/04/19,17:10,0.773,1.135,0.778,1.441,1.054,0.444,0.779,0.734,���k��,7.4,��
2019/04/19,17:20,0.774,1.133,0.778,1.443,1.053,0.442,0.778,0.734,���k��,9.3,��
2019/04/19,17:30,0.774,1.133,0.778,1.442,1.054,0.440,0.779,0.732,���k��,6.5,��
2019/04/19,17:40,0.772,1.134,0.780,1.442,1.055,0.443,0.778,0.735,���k��,7.5,��
2019/04/19,17:50,0.775,1.134,0.777,1.444,1.055,0.442,0.777,0.732,�k��,7.8,��
2019/04/19,18:00,0.775,1.132,0.780,1.448,1.053,0.443,0.778,0.735,�k��,6.8,��
2019/04/19,18:10,0.775,1.134,0.780,1.443,1.054,0.441,0.778,0.733,���k��,6.2,��
2019/04/19,18:20,0.776,1.139,0.782,1.444,1.055,0.442,0.779,0.735,���k��,6.8,��
2019/04/19,18:30,0.775,1.137,0.781,1.444,1.055,0.443,0.778,0.735,���k��,7.7,��
2019/04/19,18:40,0.775,1.135,0.780,1.446,1.055,0.442,0.777,0.735,���k��,6.1,��
2019/04/19,18:50,0.775,1.138,0.779,1.445,1.055,0.444,0.778,0.738,���k��,6.6,��
2019/04/19,19:00,0.776,1.139,0.779,1.449,1.058,0.442,0.780,0.738,���k��,6.9,��
2019/04/19,19:10,0.775,1.137,0.780,1.448,1.059,0.442,0.777,0.736,���k��,6.6,��
2019/04/19,19:20,0.777,1.137,0.779,1.446,1.057,0.443,0.777,0.737,���k��,6.5,��
2019/04/19,19:30,0.776,1.139,0.780,1.445,1.057,0.443,0.777,0.736,���k��,6.4,��
2019/04/19,19:40,0.775,1.136,0.779,1.445,1.058,0.442,0.777,0.736,�k��,4.8,��
2019/04/19,19:50,0.775,1.139,0.778,1.446,1.058,0.444,0.777,0.737,�k��,4.5,��
2019/04/19,20:00,0.775,1.136,0.780,1.448,1.057,0.442,0.777,0.735,�k��,5.2,��
2019/04/19,20:10,0.775,1.138,0.779,1.447,1.057,0.443,0.776,0.737,�k��,3.8,��
2019/04/19,20:20,0.774,1.136,0.779,1.446,1.056,0.442,0.776,0.735,�k�k��,3.0,��
2019/04/19,20:30,0.775,1.134,0.781,1.444,1.057,0.440,0.777,0.735,�k��,3.0,��
2019/04/19,20:40,0.776,1.135,0.780,1.445,1.056,0.443,0.777,0.737,�k,2.3,��
2019/04/19,20:50,0.774,1.138,0.779,1.445,1.055,0.442,0.777,0.735,�k,4.9,��
2019/04/19,21:00,0.776,1.137,0.782,1.446,1.059,0.440,0.777,0.736,�k,5.6,��
2019/04/19,21:10,0.772,1.135,0.780,1.443,1.058,0.442,0.778,0.737,�k,5.1,��
2019/04/19,21:20,0.774,1.135,0.778,1.445,1.057,0.441,0.778,0.735,�k,5.0,��
2019/04/19,21:30,0.772,1.136,0.779,1.447,1.057,0.442,0.777,0.736,�k,5.0,��
2019/04/19,21:40,0.775,1.137,0.780,1.447,1.055,0.441,0.778,0.737,�k,6.5,��
2019/04/19,21:50,0.773,1.137,0.780,1.446,1.056,0.441,0.777,0.734,�k�k��,7.5,��
2019/04/19,22:00,0.772,1.134,0.779,1.444,1.056,0.441,0.776,0.737,�k,7.2,��
2019/04/19,22:10,0.775,1.135,0.778,1.445,1.056,0.440,0.774,0.738,�k,7.1,��
2019/04/19,22:20,0.771,1.135,0.780,1.444,1.057,0.440,0.776,0.735,�k,7.5,��
2019/04/19,22:30,0.773,1.135,0.779,1.442,1.056,0.440,0.777,0.737,�k,7.2,��
2019/04/19,22:40,0.773,1.131,0.778,1.444,1.056,0.440,0.778,0.736,�k,7.9,��
2019/04/19,22:50,0.772,1.135,0.778,1.445,1.056,0.440,0.776,0.734,�k,7.4,��
2019/04/19,23:00,0.771,1.135,0.780,1.444,1.055,0.440,0.777,0.735,�k,7.2,��
2019/04/19,23:10,0.773,1.135,0.777,1.444,1.056,0.438,0.776,0.735,�k,6.5,��
2019/04/19,23:20,0.771,1.133,0.779,1.445,1.056,0.440,0.777,0.736,�k,7.1,��
2019/04/19,23:30,0.770,1.134,0.780,1.443,1.056,0.440,0.777,0.735,�k,8.9,��
2019/04/19,23:40,0.772,1.134,0.779,1.442,1.058,0.440,0.777,0.734,�k,8.0,��
2019/04/19,23:50,0.771,1.134,0.776,1.443,1.056,0.440,0.776,0.736,�k,7.0,��
